This is the latest recevied weather packets stored in our database for station/object SP4LIN-15. If no packets are shown the sender has not sent any weather packets the latest 10 day(s).
| Time | Temp. | Humidity | Pressure | Rain* | Wind** | Luminosity | Snow |
|---|---|---|---|---|---|---|---|
| 1777548151 | 17.78° C | 32% | 1021.7 hPa | 0 mm | - | - | - |
| 1777547251 | 17.78° C | 31% | 1021.8 hPa | 0 mm | - | - | - |
| 1777546351 | 17.78° C | 32% | 1022.2 hPa | 0 mm | - | - | - |
| 1777545451 | 16.67° C | 33% | 1022.3 hPa | 0 mm | - | - | - |
| 1777544552 | 17.22° C | 33% | 1022.4 hPa | 0 mm | - | - | - |
| 1777543652 | 16.67° C | 33% | 1022.5 hPa | 0 mm | - | - | - |
| 1777542752 | 17.22° C | 33% | 1022.9 hPa | 0 mm | - | - | - |
| 1777541852 | 17.22° C | 35% | 1022.8 hPa | 0 mm | - | - | - |
| 1777540952 | 14.44° C | 37% | 1022.9 hPa | 0 mm | - | - | - |
| 1777540052 | 13.33° C | 38% | 1023 hPa | 0 mm | - | - | - |
| 1777539152 | 13.33° C | 41% | 1023 hPa | 0 mm | - | - | - |
| 1777538252 | 11.67° C | 44% | 1023.1 hPa | 0 mm | - | - | - |
| 1777537352 | 10.56° C | 48% | 1023.2 hPa | 0 mm | - | - | - |
| 1777536452 | 9.44° C | 50% | 1023.4 hPa | 0 mm | - | - | - |
| 1777535552 | 7.78° C | 54% | 1023.4 hPa | 0 mm | - | - | - |
| 1777534652 | 6.67° C | 56% | 1023.7 hPa | 0 mm | - | - | - |
| 1777533752 | 6.11° C | 58% | 1023.7 hPa | 0 mm | - | - | - |
| 1777532852 | 5.56° C | 61% | 1023.6 hPa | 0 mm | - | - | - |
| 1777531952 | 3.89° C | 62% | 1023.5 hPa | 0 mm | - | - | - |
| 1777531052 | 3.89° C | 64% | 1023.5 hPa | 0 mm | - | - | - |
| 1777530152 | 3.89° C | 66% | 1023.7 hPa | 0 mm | - | - | - |
| 1777529252 | 2.78° C | 68% | 1023.5 hPa | 0 mm | - | - | - |
| 1777528352 | 2.22° C | 70% | 1023.4 hPa | 0 mm | - | - | - |
| 1777527452 | 1.67° C | 72% | 1023.3 hPa | 0 mm | - | - | - |
| 1777526552 | 1.11° C | 74% | 1023.4 hPa | 0 mm | - | - | - |
* Rain latest hour (hover to see other rain measurements)
** Current wind speed in m/s (hover to see current wind gust speed)